Regional Weather Roundup
Issued by NWS

Home | Current Version | Previous Version | Text Only | Print | Product List | Glossary Off
Versions: 1 2 3 4 5 6 7 8 9 10 11 12 13 14 15 16 17 18 19 20 21 22 23 24 25 26 27 28 29 30 31 32 33 34 35 36 37 38 39 40 41 42 43 44 45 46 47 48 49 50

000
ASUS43 KMKX 311300
RWRWI

WISCONSIN REGIONAL WEATHER ROUNDUP
NATIONAL WEATHER SERVICE MILWAUKEE/SULLIVAN WI
800 AM CDT THU JUL 31 2014

NOTE: "FAIR" INDICATES FEW OR NO CLOUDS BELOW 12,000 FEET WITH NO
SIGNIFICANT WEATHER AND/OR OBSTRUCTIONS TO VISIBILITY.

WIZ001-002-006>008-014>016-023>028-311400-
NORTHWEST WISCONSIN

CITY           SKY/WX    TMP DP  RH WIND       PRES   REMARKS
SUPERIOR ARPT  SUNNY     60  57  92 SW5       29.99R
ASHLAND        SUNNY     62  59  90 SW8       29.99R
HAYWARD        SUNNY     58  58 100 CALM      30.01S
SIREN          SUNNY     62  58  87 W5        30.02S
RICE LAKE      MOSUNNY   61  59  94 CALM      30.03S
LADYSMITH      MOSUNNY   60  59  97 W3        30.03R
EAU CLAIRE     NOT AVBL
MENOMONIE      SUNNY     64  58  81 W5        30.03S
NEW RICHMOND   SUNNY     61  59  91 CALM      30.04S
OSCEOLA        SUNNY     61  60  96 CALM      30.06S
$$

WIZ003>005-009-010-017-018-311400-
NORTH CENTRAL WISCONSIN

CITY           SKY/WX    TMP DP  RH WIND       PRES   REMARKS
WOODRUFF       FOG       59  55  85 CALM      30.00R VSB 1/2
RHINELANDER    CLOUDY    57  56  96 W3        30.00S FOG
EAGLE RIVER    FOG       54  54 100 CALM      29.99R VSB 1/4
LAND O LAKES     N/A     54  54 100 CALM      30.00R FOG
PHILLIPS       FOG       57  57 100 CALM      30.00S VSB 1/4
TOMAHAWK       CLOUDY    54  53  97 CALM      30.01S FOG
MEDFORD        MOSUNNY   59  58  97 CALM      30.01S
MERRILL        FOG       54  54 100 CALM      30.00S VSB 1
$$

WIZ029-030-035-036-043>047-311400-
CENTRAL WISCONSIN

CITY           SKY/WX    TMP DP  RH WIND       PRES   REMARKS
WAUSAU         SUNNY     61  59  93 NW8       29.99S
MOSINEE        NOT AVBL
MARSHFIELD     SUNNY     63  60  90 NW9       30.01R
STEVENS POINT  SUNNY     60  57  91 W5        30.01R
WAUPACA        SUNNY     65  61  89 W5        29.99S
WAUTOMA        NOT AVBL
WISC RAPIDS    SUNNY     61  59  93 W5        30.02R
CAMP DOUGLAS   NOT AVBL
$$

WIZ011>013-019>022-031-037>040-048>050-311400-
NORTHEAST WISCONSIN

CITY           SKY/WX    TMP DP  RH WIND       PRES   REMARKS
ANTIGO         FOG       54  54 100 CALM      30.01R VSB<1/4
STURGEON BAY   SUNNY     63  57  82 NW5       29.97S
GREEN BAY      SUNNY     62  60  93 W6        29.98S
MANITOWOC      NOT AVBL
APPLETON       MOSUNNY   61  59  94 W7        29.99S
CLINTONVILLE   SUNNY     61  59  94 CALM      29.98S
OSHKOSH        SUNNY     65  60  84 SW6       29.99R
$$

WIZ032>034-041-042-053>061-311400-
SOUTHWEST WISCONSIN

CITY           SKY/WX    TMP DP  RH WIND       PRES   REMARKS
LA CROSSE      SUNNY     66  59  78 S6        30.03R
SPARTA         SUNNY     57  56  95 CALM      30.04R
VIROQUA        FAIR      60  60 100 W3        30.05R
BOSCOBEL       SUNNY     63  60  90 SW3       30.05R
PRAIRIE DU CHI SUNNY     62  58  86 CALM      30.05R
PLATTEVILLE    FAIR      61  60  96 W3        30.07R
$$

WIZ056-057-062-063-064-067-068-311400-
SOUTH CENTRAL WISCONSIN

CITY           SKY/WX    TMP DP  RH WIND       PRES   REMARKS
BARABOO/DELLS  SUNNY     63  58  83 CALM      30.02S
LONE ROCK      CLOUDY    63  57  82 W3        30.04R FOG
WATERTOWN      SUNNY     62  58  88 SW3       30.02R
MADISON        SUNNY     67  59  75 NW5       30.02R
MIDDLETON      FAIR      65  60  85 CALM      30.03S
MONROE         SUNNY     63  59  88 W9        30.04S
JANESVILLE     SUNNY     63  57  82 CALM      30.02S
$$

WIZ051-052-058>065-066-070>072-311400-
SOUTHEAST WISCONSIN

CITY           SKY/WX    TMP DP  RH WIND       PRES   REMARKS
MILWAUKEE      MOSUNNY   66  56  70 W7        30.01S
WAUKESHA       SUNNY     63  57  82 CALM      30.03R
MILWAUKEE/TIMM SUNNY     64  55  72 W7        30.02R
RACINE         SUNNY     66  57  72 W7        30.03R
BURLINGTON     SUNNY     60  57  89 SW5       30.02S
KENOSHA        SUNNY     65  59  81 W9        30.03R
FOND DU LAC    SUNNY     64  59  83 SW5       30.00S
SHEBOYGAN      SUNNY     64  60  87 W3        29.99S
WEST BEND      SUNNY     63  55  77 W3        30.00S
JUNEAU         SUNNY     61  57  85 S5        30.02S
$$

LSZ147-162-311400-
LAKE SUPERIOR

STATION/POSITION TIME  TEMP    WIND        PRES    WAVE
                       AIR SEA DIR/SP/G            HT/PER
                 (UTC) (F)     (DEG/KT/KT) (MB)    (FT/S)
W MID LAKE BUOY  1150   49 41  270/  6/  8 1014.2R   0
PORT WING        1200   58     170/  4/  5 1015.2S
SAXON HARBOR     1200          180/  3/  7 1014.6S
$$

LMZ867-665-643>646-311400-
LAKE MICHIGAN

STATION/POSITION TIME  TEMP    WIND        PRES    WAVE
                       AIR SEA DIR/SP/G            HT/PER
                 (UTC) (F)     (DEG/KT/KT) (MB)    (FT/S)
N MID LAKE BUOY  1150   56 52  260/  6/  6 1013.8R   0
NORTHPORT PIER   1200   62     280/  2/  4 1014.2S
SISTER BAY       1210   64     330/  7/  7   N/A
KEWAUNEE LAKESHO 1200   54     170/  2/  3 1014.2R
SHEBOYGAN LAKESH 1200   64     260/  2/  3 1015.5R
PORT WASHINGTON  1240   67     270/  6/  8 1016.3S
ATWATER BUOY     1200   65     260/  8     1016.7S
MILWAUKEE LAKESH 1200   65     280/  7/  9   N/A
S MID LAKE BUOY  1150   62 60  240/ 12/ 12 1015.9R   1/ 3
KENOSHA   LAKESH 1200   66     250/  7/ 13 1016.3S
$$

TC  - TEMPERATURE IN CELSIUS
VSB - VISIBILITY IN STATUTE MILES
WCI - WIND CHILL INDEX
HX  - HEAT INDEX




USA.gov is the U.S. government's official web portal to all federal, state and local government web resources and services.